Cancun, Mexico

4:06 PM on July 24, 2017 (GMT +0000)
Cancun International

Weather History for MMUN - December, 2013

Change the Weather History Date:

Thursday, December 26, 2013

  Actual Average Record
Temperature  
Mean Temperature 75 °F -  
Max Temperature 82 °F 81 °F 87 °F (1997)
Min Temperature 68 °F 63 °F 55 °F (1999)
Cooling Degree Days 10    
Growing Degree Days 25 (Base 50)    
Moisture  
Dew Point 70 °F    
Average Humidity 84    
Maximum Humidity 100    
Minimum Humidity 62    
Precipitation  
Precipitation 0.00 in - - ()
Sea Level Pressure  
Sea Level Pressure 30.02 in    
Wind  
Wind Speed 3 mph ()    
Max Wind Speed 9 mph    
Max Gust Speed -    
Visibility 6.8 miles    
Events      
Averages and records for this station are not official NWS values.
T = Trace of Precipitation, MM = Missing Value Source: Averaged Metar Reports

Daily Weather History Graph

Daily Weather History Graph

Search for Another Location

Airport or City:

Trip Planner

Search our weather history database for the weather conditions in past years. The results will help you decide how hot, cold, wet, or windy it might be!

Date:

Astronomy

Dec. 26, 2013 Rise Set
Actual Time 6:22 AM CST 5:14 PM CST
Civil Twilight 5:58 AM CST 5:38 PM CST
Nautical Twilight 5:30 AM CST 6:06 PM CST
Astronomical Twilight 5:03 AM CST 6:33 PM CST
Moon 12:22 AM CST (12/26) 12:20 PM CST (12/26)
Length of Visible Light 11h 40m
Length of Day
10h 51m
Last Quarter, 38% of the Moon is Illuminated
Dec 26
Last Quarter
Jan 1
New
Jan 7
First Quarter
Jan 15
Full
Jan 23
Last Quarter

Hourly Weather History & Observations

Time (CST) Temp. Heat Index Dew Point Humidity Pressure Visibility Wind Dir Wind Speed Gust Speed Precip Events Conditions
12:45 AM 68.0 °F - 68.0 °F 100% 30.04 in 7.0 mi Calm Calm - N/A   Partly Cloudy
1:44 AM 68.0 °F - 68.0 °F 100% 30.03 in 7.0 mi NNW 3.5 mph - N/A   Scattered Clouds
2:46 AM 68.0 °F - 68.0 °F 100% 29.97 in 6.0 mi NNW 4.6 mph - N/A   Scattered Clouds
3:45 AM 68.0 °F - 68.0 °F 100% 30.02 in 6.0 mi NNW 3.5 mph - N/A   Scattered Clouds
4:44 AM 68.0 °F - 68.0 °F 100% 30.02 in 6.0 mi NNW 2.3 mph - N/A   Scattered Clouds
5:45 AM 68.0 °F - 68.0 °F 100% 30.00 in 6.0 mi NNW 2.3 mph - N/A   Scattered Clouds
6:44 AM 68.0 °F - 68.0 °F 100% 30.06 in 7.0 mi NNW 2.3 mph - N/A   Scattered Clouds
7:49 AM 71.6 °F - 69.8 °F 94% 30.07 in 7.0 mi NW 2.3 mph - N/A   Scattered Clouds
8:40 AM 75.2 °F - 71.6 °F 89% 30.05 in 7.0 mi North 4.6 mph - N/A   Scattered Clouds
9:44 AM 80.6 °F 85.4 °F 73.4 °F 79% 30.08 in 7.0 mi North 3.5 mph - N/A   Scattered Clouds
10:53 AM 82.4 °F 86.3 °F 69.8 °F 66% 30.07 in 7.0 mi NE 4.6 mph - N/A   Mostly Cloudy
11:41 AM 82.4 °F 85.4 °F 68.0 °F 62% 30.04 in 7.0 mi ENE 5.8 mph - N/A   Mostly Cloudy
12:43 PM 80.6 °F 83.9 °F 69.8 °F 70% 30.02 in 7.0 mi East 3.5 mph - N/A   Mostly Cloudy
1:50 PM 80.6 °F 83.9 °F 69.8 °F 70% 29.98 in 7.0 mi East 4.6 mph - N/A   Mostly Cloudy
2:48 PM 80.6 °F 83.9 °F 69.8 °F 70% 29.95 in 7.0 mi ESE 4.6 mph - N/A   Mostly Cloudy
3:40 PM 80.6 °F 83.9 °F 69.8 °F 70% 29.98 in 7.0 mi East 9.2 mph - N/A   Mostly Cloudy
4:41 PM 78.8 °F - 69.8 °F 74% 29.99 in 7.0 mi East 5.8 mph - N/A   Scattered Clouds
5:50 PM 77.0 °F - 71.6 °F 83% 29.99 in 7.0 mi East 3.5 mph - N/A   Scattered Clouds
6:42 PM 75.2 °F - 71.6 °F 89% 30.03 in 7.0 mi NNE 3.5 mph - N/A   Scattered Clouds
7:41 PM 77.0 °F - 71.6 °F 83% 30.04 in 7.0 mi East 2.3 mph - N/A   Partly Cloudy
8:41 PM 77.0 °F - 71.6 °F 83% 30.02 in 7.0 mi East 2.3 mph - N/A   Partly Cloudy
9:40 PM 77.0 °F - 69.8 °F 78% 30.06 in 7.0 mi East 3.5 mph - N/A   Scattered Clouds
10:41 PM 75.2 °F - 69.8 °F 83% 30.05 in 7.0 mi East 4.6 mph - N/A   Partly Cloudy
11:47 PM 77.0 °F - 69.8 °F 78% 30.01 in 7.0 mi East 4.6 mph - N/A   Partly Cloudy